When you browse on this site, cookies collect data to enhance your experience and personalize the content and advertising you see.
Visit our Privacy Policy to learn more. By continuing to use the site, you agree to this use of cookies and data.
  • în România
  • Lista ţărilor
  • Pe 7 zile
  • Temperatura apei
  • Meteo pe hartă
  • Widget-uri
  • user-avatar
    Intrare

    Meteo pe oră la Córdoba

    Astăzi, 2 Iunie, Marţi

    Timp Temperatura Precipitaţii Vânt Presiune Umiditate
    00:00 +8°C° 0 mm 2 m/s 728 mmHg 53%
    01:00 +8°C° 0 mm 2 m/s 728 mmHg 55%
    02:00 +8°C° 0 mm 2 m/s 728 mmHg 56%
    03:00 +8°C° 0 mm 2 m/s 728 mmHg 57%
    04:00 +9°C° 0 mm 1 m/s 727 mmHg 59%
    05:00 +8°C° 0 mm 1 m/s 727 mmHg 60%
    06:00 +9°C° 0 mm 1 m/s 727 mmHg 59%
    07:00 +9°C° 0 mm 1 m/s 727 mmHg 58%
    08:00 +9°C° 0 mm 1 m/s 728 mmHg 57%
    09:00 +12°C° 0 mm 2 m/s 727 mmHg 50%
    10:00 +14°C° 0 mm 2 m/s 727 mmHg 43%
    11:00 +17°C° 0 mm 2 m/s 727 mmHg 36%
    12:00 +18°C° 0 mm 3 m/s 726 mmHg 34%
    13:00 +19°C° 0 mm 4 m/s 726 mmHg 32%
    14:00 +20°C° 0 mm 5 m/s 725 mmHg 31%
    15:00 +19°C° 0 mm 5 m/s 724 mmHg 33%
    16:00 +16°C° 0 mm 5 m/s 724 mmHg 36%
    17:00 +15°C° 0 mm 5 m/s 724 mmHg 38%
    18:00 +14°C° 0 mm 4 m/s 724 mmHg 41%
    19:00 +12°C° 0 mm 4 m/s 724 mmHg 45%
    20:00 +11°C° 0 mm 4 m/s 724 mmHg 48%
    21:00 +11°C° 0 mm 4 m/s 724 mmHg 49%
    22:00 +10°C° 0 mm 4 m/s 724 mmHg 50%
    23:00 +10°C° 0 mm 4 m/s 724 mmHg 51%

    Mâine, 3 Iunie, Miercuri

    Timp Temperatura Precipitaţii Vânt Presiune Umiditate
    00:00 +8°C° 0 mm 4 m/s 724 mmHg 53%
    01:00 +8°C° 0 mm 4 m/s 723 mmHg 54%
    02:00 +8°C° 0 mm 4 m/s 723 mmHg 56%
    03:00 +7°C° 0 mm 4 m/s 723 mmHg 59%
    04:00 +8°C° 0 mm 3 m/s 723 mmHg 63%
    05:00 +7°C° 0 mm 3 m/s 723 mmHg 66%
    06:00 +7°C° 0 mm 3 m/s 723 mmHg 67%
    07:00 +7°C° 0 mm 3 m/s 724 mmHg 68%
    08:00 +7°C° 0 mm 2 m/s 724 mmHg 69%
    09:00 +9°C° 0 mm 3 m/s 725 mmHg 63%
    10:00 +11°C° 0 mm 3 m/s 725 mmHg 56%
    11:00 +13°C° 0 mm 3 m/s 726 mmHg 50%
    12:00 +13°C° 0 mm 3 m/s 725 mmHg 50%
    13:00 +14°C° 0 mm 3 m/s 725 mmHg 49%
    14:00 +14°C° 0 mm 3 m/s 725 mmHg 49%
    15:00 +14°C° 0 mm 2 m/s 725 mmHg 53%
    16:00 +14°C° 0 mm 2 m/s 725 mmHg 56%
    17:00 +13°C° 0 mm 1 m/s 725 mmHg 60%
    18:00 +13°C° 0.1 mm 1 m/s 726 mmHg 63%
    19:00 +12°C° 0.1 mm 1 m/s 727 mmHg 65%
    20:00 +12°C° 0.1 mm 1 m/s 727 mmHg 68%
    21:00 +12°C° 0.2 mm 1 m/s 728 mmHg 70%
    22:00 +11°C° 0.2 mm 1 m/s 728 mmHg 73%
    23:00 +11°C° 0.2 mm 1 m/s 729 mmHg 75%

    Poimâine, 4 Iunie, Joi

    Timp Temperatura Precipitaţii Vânt Presiune Umiditate
    00:00 +11°C° 0.2 mm 1 m/s 729 mmHg 77%
    01:00 +11°C° 0.2 mm 1 m/s 729 mmHg 79%
    02:00 +11°C° 0.2 mm 1 m/s 729 mmHg 81%
    03:00 +10°C° 0.3 mm 1 m/s 728 mmHg 83%
    04:00 +10°C° 0.3 mm 1 m/s 728 mmHg 85%
    05:00 +10°C° 0.3 mm 1 m/s 728 mmHg 86%
    06:00 +10°C° 0.4 mm 1 m/s 728 mmHg 86%
    07:00 +10°C° 0.4 mm 1 m/s 728 mmHg 86%
    08:00 +10°C° 0.4 mm 1 m/s 728 mmHg 86%
    09:00 +11°C° 0.5 mm 1 m/s 729 mmHg 84%
    10:00 +11°C° 0.5 mm 1 m/s 729 mmHg 82%
    11:00 +11°C° 0.5 mm 1 m/s 729 mmHg 81%
    12:00 +10°C° 0.5 mm 2 m/s 728 mmHg 79%
    13:00 +10°C° 0.5 mm 2 m/s 728 mmHg 77%
    14:00 +10°C° 0.5 mm 3 m/s 727 mmHg 76%
    15:00 +10°C° 0 mm 2 m/s 727 mmHg 76%
    16:00 +10°C° 0 mm 2 m/s 727 mmHg 76%
    17:00 +10°C° 0 mm 2 m/s 727 mmHg 76%
    18:00 +10°C° 0.2 mm 2 m/s 727 mmHg 78%
    19:00 +10°C° 0.2 mm 2 m/s 727 mmHg 80%
    20:00 +9°C° 0.2 mm 2 m/s 728 mmHg 82%
    21:00 +9°C° 0.4 mm 2 m/s 728 mmHg 82%
    22:00 +9°C° 0.4 mm 2 m/s 728 mmHg 83%
    23:00 +9°C° 0.4 mm 2 m/s 728 mmHg 84%

    5 Iunie, Vineri

    Timp Temperatura Precipitaţii Vânt Presiune Umiditate
    00:00 +10°C° 0.1 mm 1 m/s 728 mmHg 83%
    01:00 +10°C° 0.1 mm 1 m/s 728 mmHg 82%
    02:00 +10°C° 0.1 mm 1 m/s 728 mmHg 81%
    03:00 +10°C° 0 mm 1 m/s 727 mmHg 80%
    04:00 +10°C° 0 mm 1 m/s 727 mmHg 80%
    05:00 +10°C° 0 mm 1 m/s 726 mmHg 79%
    06:00 +10°C° 0 mm 1 m/s 727 mmHg 77%
    07:00 +10°C° 0 mm 1 m/s 727 mmHg 74%
    08:00 +11°C° 0 mm 1 m/s 727 mmHg 72%
    09:00 +12°C° 0 mm 2 m/s 727 mmHg 67%
    10:00 +13°C° 0 mm 2 m/s 727 mmHg 61%
    11:00 +14°C° 0 mm 3 m/s 727 mmHg 55%
    12:00 +16°C° 0 mm 3 m/s 726 mmHg 52%
    13:00 +17°C° 0 mm 3 m/s 726 mmHg 49%
    14:00 +18°C° 0 mm 4 m/s 725 mmHg 46%
    15:00 +17°C° 0 mm 3 m/s 725 mmHg 49%
    16:00 +16°C° 0 mm 3 m/s 725 mmHg 51%
    17:00 +15°C° 0 mm 2 m/s 725 mmHg 54%
    18:00 +14°C° 0 mm 2 m/s 725 mmHg 59%
    19:00 +13°C° 0 mm 2 m/s 725 mmHg 63%
    20:00 +12°C° 0 mm 1 m/s 725 mmHg 68%
    21:00 +12°C° 0 mm 1 m/s 725 mmHg 70%
    22:00 +11°C° 0 mm 1 m/s 725 mmHg 71%
    23:00 +11°C° 0 mm 1 m/s 725 mmHg 73%

    6 Iunie, Sâmbătă

    Timp Temperatura Precipitaţii Vânt Presiune Umiditate
    00:00 +11°C° 0 mm 1 m/s 725 mmHg 74%
    01:00 +10°C° 0 mm 1 m/s 725 mmHg 74%
    02:00 +10°C° 0 mm 1 m/s 725 mmHg 75%
    03:00 +10°C° 0 mm 1 m/s 724 mmHg 76%
    04:00 +9°C° 0 mm 1 m/s 724 mmHg 77%
    05:00 +9°C° 0 mm 1 m/s 724 mmHg 78%
    06:00 +9°C° 0 mm 1 m/s 724 mmHg 76%
    07:00 +10°C° 0 mm 1 m/s 724 mmHg 75%
    08:00 +10°C° 0 mm 1 m/s 725 mmHg 73%
    09:00 +12°C° 0 mm 1 m/s 725 mmHg 64%
    10:00 +15°C° 0 mm 2 m/s 724 mmHg 56%
    11:00 +17°C° 0 mm 2 m/s 724 mmHg 48%
    12:00 +18°C° 0 mm 2 m/s 724 mmHg 44%
    13:00 +19°C° 0 mm 3 m/s 723 mmHg 41%
    14:00 +20°C° 0 mm 3 m/s 723 mmHg 37%
    15:00 +19°C° 0 mm 3 m/s 722 mmHg 41%
    16:00 +18°C° 0 mm 2 m/s 722 mmHg 45%
    17:00 +17°C° 0 mm 2 m/s 722 mmHg 48%
    18:00 +16°C° 0 mm 2 m/s 722 mmHg 52%
    19:00 +15°C° 0 mm 1 m/s 723 mmHg 56%
    20:00 +13°C° 0 mm 1 m/s 723 mmHg 60%
    21:00 +13°C° 0 mm 1 m/s 723 mmHg 61%
    22:00 +12°C° 0 mm 1 m/s 724 mmHg 62%
    23:00 +12°C° 0 mm 1 m/s 724 mmHg 63%

    7 Iunie, Duminică

    Timp Temperatura Precipitaţii Vânt Presiune Umiditate
    00:00 +11°C° 0 mm 1 m/s 724 mmHg 64%
    01:00 +10°C° 0 mm 0 m/s 724 mmHg 66%
    02:00 +9°C° 0 mm 0 m/s 725 mmHg 67%
    03:00 +9°C° 0 mm 0 m/s 725 mmHg 68%
    04:00 +9°C° 0 mm 0 m/s 725 mmHg 69%
    05:00 +9°C° 0 mm 0 m/s 725 mmHg 69%
    06:00 +9°C° 0 mm 0 m/s 726 mmHg 69%
    07:00 +9°C° 0 mm 0 m/s 726 mmHg 70%
    08:00 +9°C° 0 mm 0 m/s 727 mmHg 70%
    09:00 +13°C° 0 mm 1 m/s 727 mmHg 62%
    10:00 +15°C° 0 mm 1 m/s 727 mmHg 54%
    11:00 +17°C° 0 mm 2 m/s 728 mmHg 46%
    12:00 +18°C° 0 mm 3 m/s 727 mmHg 45%
    13:00 +19°C° 0 mm 4 m/s 726 mmHg 43%
    14:00 +20°C° 0 mm 5 m/s 726 mmHg 42%
    15:00 +19°C° 0 mm 4 m/s 726 mmHg 46%
    16:00 +18°C° 0 mm 4 m/s 725 mmHg 49%
    17:00 +17°C° 0 mm 3 m/s 725 mmHg 53%
    18:00 +16°C° 0 mm 3 m/s 725 mmHg 58%
    19:00 +14°C° 0 mm 3 m/s 725 mmHg 63%
    20:00 +13°C° 0 mm 3 m/s 725 mmHg 68%
    21:00 +13°C° 0 mm 3 m/s 725 mmHg 69%
    22:00 +12°C° 0 mm 3 m/s 725 mmHg 70%
    23:00 +12°C° 0 mm 3 m/s 726 mmHg 70%
    Arată mai mult